Location: Hobi?a Gr?di?te
(45.4833°N, 22.7833°E)
Time: 05:22:36
(UTC+00:00)

Cosmos 1892 - Pass Details

Date: 28 January 2023
Orbit: 486 x 506 km, 82.5° (Epoch: 29 March)

Event Time Altitude Azimuth Distance (km) Brightness Sun altitude
Rises 16:53:11 0° 166° (SSE) 2,555 6.2 -14.8°
Reaches altitude 10° 16:55:24 10° 156° (SSE) 1,683 5.2 -15.2°
Maximum altitude 16:58:44 33° 92° (E) 863 3.3 -15.7°
Enters shadow 16:58:53 32° 86° (E) 866 3.2 -15.8°
